Weather in Vetoshkino

Russia / Kirov Oblast     57°17′27″N   49°43′04″E
temp.,
°C
wind,
m/s
gust,
m/s
humid.,
%
clouds,
%
prec.,
mm/h
press.,
hPa
HPBL,
m
2 august, mon
mon200:00+17wsw337661 0.0 101130
03:00+18sw367255 0.0 1012121
06:00+19sw41068100 0.0 1012265
09:00+24sw6951100 0.0 1012707
12:00+27sw6945100 0.1 10121223
15:00+28wsw6944100 0.1 10111756
18:00+27sw365549 0.0 1010169
21:00+21s377381 0.5 1011108
3 august, tue
tue300:00+19s358234 0.1 101076
03:00+19s358194 0.1 101078
06:00+21s39675 0.0 1010218
09:00+28s58455 0.0 1009541
12:00+32ssw68365 0.0 10081409
15:00+34sw68326 0.0 10072809
18:00+20n347989 8.6 100755
21:00+20sw51192100 11.3 1009239
4 august, wed
wed400:00+18ssw479584 0.8 1010144
03:00+18wnw499598 1.2 1009194
06:00+19sw1290100 0.0 1010107
09:00+23nw2272100 0.1 1011594
12:00+18nw4796100 7.7 1012311
15:00+18nnw239234 8.1 1012235
18:00+21nw237474 0.0 1012440
21:00+17wsw228151 0.0 101311
5 august, thu
thu500:00+16wnw22840 0.0 101319
03:00+15nw22903 0.1 101412
06:00+17nw238412 0.2 1015101
09:00+21nne336339 0.3 1015561
12:00+22n546299 3.3 1016858
15:00+21n46625 3.3 1016557
18:00+21nne22634 0.0 101659
21:00+16n23695 0.0 101720
6 august, fri
fri600:00+14n22695 0.0 101711
03:00+13nne33756 0.0 101829
06:00+15nne2467100 0.0 1018148
09:00+18nne4551100 0.0 1019502
12:00+21nne554198 0.0 10191564
15:00+21n5640100 0.0 10192127
18:00+18ne595116 0.0 1020478
21:00+13nne34695 0.0 102153